Location: Bono
(42.5349°N, 0.7245°E)
Time: 06:10:15
(UTC+00:00)

Daily predictions for brighter satellites

Satellite Brightness Start Highest point End
(mag) Time Altitude Azimuth Time Altitude Azimuth Time Altitude Azimuth
Cosmos 1809 Rocket 4.5 17:18:30 10° N 17:24:41 83° E 17:30:46 10° S
Cosmos 1908 4.2 17:21:02 10° SSW 17:24:47 53° W 17:28:36 10° N
H-2A R/B 3.7 17:23:23 10° E 17:26:11 14° ENE 17:28:59 10° NNE
CZ-4 R/B 2.9 17:26:01 10° ESE 17:28:23 16° ENE 17:30:44 10° NNE
Cosmos 2227 Rocket 3.1 17:24:25 10° N 17:29:17 28° NE 17:34:07 10° ESE
Atlas Centaur 2 4.4 17:22:53 10° SW 17:29:25 26° SSE 17:36:08 10° ESE
Cosmos 2266 Rocket 4.3 17:23:54 10° N 17:30:09 76° W 17:36:28 10° S
Cosmos 1892 4.2 17:29:17 10° NNE 17:31:53 17° ENE 17:34:29 10° ESE
Cosmos 1408 4.5 17:34:37 10° NE 17:36:00 12° ENE 17:37:15 10° E
NOAA 12 4.3 17:31:49 10° S 17:37:06 80° WSW 17:42:27 10° NNW
Cosmos 1300 2.6 17:37:25 10° S 17:41:12 72° E 17:45:01 10° NNE
Cosmos 1953 Rocket 3.5 17:38:35 10° N 17:42:59 64° E 17:47:24 10° SSE
Cosmos 1697 Rocket 3.8 17:40:07 10° SSE 17:44:24 23° E 17:48:43 10° NE
Cosmos 2058 Rocket 3.3 17:40:13 10° SSE 17:44:29 47° E 17:48:50 10° NNE
Cosmos 1331 Rocket 4.3 17:39:51 10° SSW 17:44:59 71° WNW 17:50:10 10° NNE
SL-4 R/B 3.6 17:43:48 10° NW 17:46:26 19° N 17:49:04 11° NE
IRS-1C Rocket 4.2 17:41:51 10° SE 17:46:56 52° ENE 17:52:03 10° N
CZ-2D R/B 3.9 17:43:44 10° SE 17:47:08 32° ENE 17:50:33 10° N
SeaSat 1 4.2 17:46:28 12° ENE 17:48:17 14° NE 17:50:48 10° NNE
Cosmos 1346 Rocket 4.1 17:47:45 10° NNE 17:50:48 21° ENE 17:53:51 10° ESE
USA 305 4.4 17:47:22 10° NW 17:50:53 24° NNE 17:53:27 14° ENE
Cosmos 44 3.5 17:48:13 10° SW 17:52:39 65° NW 17:57:24 10° NNE
Cosmos 1825 4.3 17:51:19 10° NE 17:51:38 11° NE 17:51:38 11° NE
Cosmos 1315 Rocket 4.1 17:51:19 10° SE 17:54:10 19° E 17:56:19 13° NE
NOAA 11 4.2 17:48:55 10° SSE 17:54:22 90° ENE 17:59:50 10° NNW
USA 306 4.3 17:53:47 10° NW 17:57:20 25° NNE 17:59:35 16° ENE
BREEZE-M R/B 4.3 17:57:06 10° WNW 18:00:40 37° NNE 18:05:18 17° ENE
SAR-Lupe-4 3.6 17:57:08 10° NNE 18:00:43 85° WNW 18:04:17 10° SSW
ERS-2 3.4 17:57:18 10° N 18:00:46 42° WNW 18:04:13 10° SW
ATLAS 2AS CENTAUR R/B 4.3 17:56:05 10° NNW 18:01:27 20° NNE 18:05:17 14° ENE
Cosmos 968 Rocket 3.8 18:00:03 10° N 18:05:01 43° ENE 18:09:55 10° SE
Cosmos 1340 2.6 18:02:07 10° N 18:05:51 61° ENE 18:09:35 10° SSE
Cosmos 1980 Rocket 3.4 18:03:24 10° SE 18:07:10 19° E 18:07:19 19° E
Cosmos 2297 Rocket 2.1 18:03:47 10° NNW 18:09:27 67° ENE 18:15:04 10° SSE
COSMO-SKYMED 1 2.5 18:05:13 10° NNE 18:09:35 85° E 18:13:56 10° SSW
Aureole 3 Rocket 3.0 18:06:18 10° S 18:10:04 85° E 18:15:18 10° N
MOS 1 Rocket 4.1 18:06:10 10° NE 18:10:19 30° E 18:14:40 10° SSE
Cosmos 1076 Rocket 4.4 18:07:23 10° NNE 18:10:56 25° ENE 18:11:35 24° E
In-Cosmos 22 Rocket 4.0 18:06:46 10° N 18:12:08 69° E 18:17:35 10° SSE
S3M 4.1 18:08:09 10° SSE 18:13:58 48° E 18:19:51 10° NNE
Cosmos 1302 Rocket 4.2 18:10:44 10° SSW 18:15:58 74° WNW 18:21:17 10° NNE
Okean O Rocket 4.2 18:17:16 10° SSW 18:20:48 24° W 18:24:20 10° NW
Lacrosse 5 4.0 18:17:55 10° NW 18:20:55 15° N 18:23:30 11° NNE
SL-08 ROCKET BODY 4.4 18:15:49 10° N 18:21:54 63° E 18:28:00 10° SSE
FALCON 9 DEB 4.5 18:19:04 10° W 18:21:59 30° NNW 18:23:30 20° NNE
YAOGAN 1 2.6 18:17:56 10° SSE 18:22:08 54° ENE 18:26:22 10° N
Aureole 3 3.6 18:20:46 10° SSW 18:23:54 49° W 18:26:49 10° N
Cosmos 1417 Rocket 4.4 18:18:46 10° S 18:24:58 75° E 18:31:18 10° N
Cosmos 1486 Rocket 3.9 18:20:16 10° NNW 18:25:36 68° ENE 18:30:53 10° SSE
Milstar 3 4.2 18:22:10 10° SW 18:27:44 25° S 18:31:53 15° SE
Cosmos 1812 Rocket 3.9 18:24:50 10° SSE 18:28:55 39° E 18:30:37 27° NE
Cosmos 1455 2.2 18:26:04 10° S 18:29:42 50° E 18:31:13 30° NE
CZ-2C R/B 3.2 18:26:23 10° SSE 18:32:09 70° ENE 18:37:47 10° N
Cosmos 1503 Rocket 4.2 18:30:20 10° N 18:35:23 47° ENE 18:37:12 34° ESE
Cosmos 44 Rocket 3.8 18:31:08 10° S 18:35:26 36° ESE 18:35:27 36° ESE
Cosmos 2278 4.2 18:31:18 10° SSE 18:36:22 35° ESE 18:36:45 34° E
Cosmos 1939 Rocket 4.2 18:35:14 10° S 18:38:59 41° W 18:42:44 10° NNW
CZ-4B R/B 4.5 18:37:26 10° NNW 18:39:09 14° WNW 18:40:49 10° W
Cosmos 2219 3.6 18:34:04 10° NNW 18:39:48 67° WSW 18:45:28 10° SSE
USA 307 3.6 18:36:37 10° NW 18:40:37 37° NNE 18:40:52 37° NE
DMSP B5D1-3 4.4 18:35:45 10° NNE 18:40:53 64° ESE 18:45:59 10° S
Meteor 2-10 Rocket 3.4 18:37:38 10° S 18:43:00 88° E 18:48:10 10° N
Cosmos 1553 Rocket 4.3 18:37:07 10° SSW 18:43:27 72° W 18:49:45 10° N
USA 308 3.5 18:41:26 10° NW 18:45:28 39° NNE 18:45:31 39° NNE
Helios 1A Rocket 3.7 18:42:23 10° S 18:46:24 53° W 18:50:27 10° NNW
Cosmos 1354 Rocket 4.1 18:41:49 10° N 18:46:58 52° ENE 18:47:52 46° E
Cosmos 2082 3.7 18:42:49 10° NNW 18:48:33 63° ENE 18:50:46 37° SE
Meteor 2-15 Rocket 4.3 18:45:11 10° S 18:51:20 84° E 18:57:30 10° N
Okean-O 3.4 18:49:52 10° S 18:54:11 53° W 18:58:32 10° NNW
Cosmos 1992 Rocket 4.0 18:49:46 10° SSW 18:54:58 83° WNW 18:59:48 12° NNE
ARGOS 3.1 18:54:41 45° ESE 18:56:04 59° ENE 19:01:25 10° N
Cosmos 2369 3.6 18:54:09 10° SSW 18:59:52 83° ESE 19:03:11 26° NNE
OAO 2 Rocket 4.2 18:55:46 10° WSW 19:00:14 34° S 19:00:33 34° SSE
CZ-4 R/B 2.6 18:59:25 10° S 19:03:06 40° W 19:06:46 10° NNW
H-2A R/B 2.1 18:59:24 10° SSE 19:04:48 87° WSW 19:10:18 10° NNW
GEOS 3 Rocket 3.5 19:05:41 62° ESE 19:06:26 73° NE 19:11:50 10° NNW
Cosmos 2058 3.7 19:03:40 10° NNW 19:07:39 51° W 19:11:37 10° S
Cosmos 1892 4.5 19:04:10 10° NNW 19:07:40 33° W 19:11:10 10° SSW
Geosat 4.2 19:06:43 23° NNE 19:09:50 69° WNW 19:14:48 10° SW
Cosmos 1408 3.7 19:07:45 10° NNW 19:11:15 44° W 19:11:40 42° WSW
Cosmos 1745 Rocket 4.4 19:05:22 10° NNW 19:11:35 63° W 19:17:49 10° S
Cosmos 2227 Rocket 3.2 19:08:09 10° NW 19:13:31 46° WSW 19:18:52 10° S
CSL-04 Rocket 3.8 19:08:35 10° S 19:14:07 74° WSW 19:19:40 10° NNW
Atlas Centaur 2 3.9 19:10:50 10° WSW 19:18:18 35° S 19:20:08 32° SSE
Cosmos 2263 Rocket 3.6 19:14:19 10° N 19:17:16 25° NNE 19:17:16 25° NNE
Timation 1 Rocket 4.2 19:14:30 10° NNW 19:20:33 74° ENE 19:20:34 74° ENE
SeaSat 1 2.9 19:26:15 52° NNW 19:26:15 52° NNW 19:30:01 10° NNW
SL-4 R/B 4.2 19:23:24 10° NW 19:24:38 18° NNW 19:24:38 18° NNW
Cosmos 1697 Rocket 3.4 19:22:31 10° SW 19:27:58 51° WNW 19:31:25 22° N
Cosmos 1825 4.4 19:25:09 10° NNW 19:26:28 20° NNW 19:26:28 20° NNW
CZ-4C R/B 4.0 19:24:26 10° NNW 19:29:36 27° NNE 19:29:36 27° NNE
USA 305 4.4 19:27:08 10° NW 19:29:35 33° NW 19:29:35 33° NW
NOSS 3-4 (A) 4.0 19:25:11 10° NNW 19:31:39 52° NE 19:31:39 52° NE
NOSS 3-4 (C) 4.1 19:25:17 10° NNW 19:31:43 52° NE 19:31:43 52° NE
DEBRIS 4.4 19:18:19 10° WSW 19:35:44 64° NNW 19:36:49 55° NNE
USA 215 3.8 19:39:00 43° NNE 19:39:00 43° NNE 19:44:45 10° NW
Cosmos 1709 Rocket 4.3 19:35:04 10° NNW 19:41:23 66° W 19:44:29 32° SSW
Cosmos 1980 Rocket 2.9 19:45:01 10° SW 19:49:11 47° WSW 19:49:11 47° WSW
ATLAS 2AS CENTAUR R/B 3.3 19:46:52 10° NNW 19:52:43 48° N 19:52:43 48° N
Lacrosse 5 4.3 20:01:22 10° NNW 20:02:41 16° NNW 20:02:41 16° NNW
